TimeEDT,TemperatureF,Dew PointF,Humidity,Sea Level PressureIn,VisibilityMPH,Wind Direction,Wind SpeedMPH,Gust SpeedMPH,PrecipitationIn,Events,Conditions,WindDirDegrees,DateUTC
12:15 AM,61.5,54.9,79,30.33,10.0,East,4.6,-,N/A,,Clear,100,2012-10-14 04:15:00
12:35 AM,62.1,55.2,78,30.33,10.0,East,4.6,-,N/A,,Clear,90,2012-10-14 04:35:00
1:15 AM,62.6,55.6,78,30.31,10.0,Calm,Calm,-,N/A,,Clear,0,2012-10-14 05:15:00
1:35 AM,62.8,55.9,78,30.31,10.0,Calm,Calm,-,N/A,,Clear,0,2012-10-14 05:35:00
1:55 AM,62.8,56.1,79,30.30,10.0,Calm,Calm,-,N/A,,Clear,0,2012-10-14 05:55:00
2:15 AM,62.2,56.3,81,30.30,10.0,Calm,Calm,-,N/A,,Clear,0,2012-10-14 06:15:00
2:35 AM,61.7,56.3,82,30.29,10.0,Calm,Calm,-,N/A,,Clear,0,2012-10-14 06:35:00
2:55 AM,61.5,56.5,83,30.29,10.0,Calm,Calm,-,N/A,,Clear,0,2012-10-14 06:55:00
3:35 AM,61.7,56.7,84,30.27,10.0,Calm,Calm,-,N/A,,Clear,0,2012-10-14 07:35:00
3:55 AM,60.6,56.5,86,30.27,7.0,Calm,Calm,-,N/A,,Clear,0,2012-10-14 07:55:00
4:15 AM,59.5,56.5,90,30.27,10.0,Calm,Calm,-,N/A,,Clear,0,2012-10-14 08:15:00
4:35 AM,58.8,56.3,91,30.26,10.0,Calm,Calm,-,N/A,,Clear,0,2012-10-14 08:35:00
4:55 AM,58.3,56.5,94,30.26,10.0,Calm,Calm,-,N/A,,Clear,0,2012-10-14 08:55:00
5:15 AM,58.6,57.0,94,30.26,10.0,Calm,Calm,-,N/A,,Clear,0,2012-10-14 09:15:00
5:35 AM,58.5,56.7,94,30.26,10.0,Calm,Calm,-,N/A,,Clear,0,2012-10-14 09:35:00
5:55 AM,58.1,56.7,95,30.26,10.0,Calm,Calm,-,N/A,,Clear,0,2012-10-14 09:55:00
6:15 AM,58.8,57.4,95,30.26,10.0,Calm,Calm,-,N/A,,Clear,0,2012-10-14 10:15:00
6:35 AM,59.2,57.6,94,30.26,7.0,Calm,Calm,-,N/A,,Clear,0,2012-10-14 10:35:00
6:55 AM,59.5,57.9,94,30.26,7.0,Calm,Calm,-,N/A,,Clear,0,2012-10-14 10:55:00
7:15 AM,60.1,58.5,94,30.26,7.0,Calm,Calm,-,N/A,,Clear,0,2012-10-14 11:15:00
7:35 AM,60.4,59.0,95,30.26,7.0,Calm,Calm,-,N/A,,Clear,0,2012-10-14 11:35:00
7:55 AM,61.3,59.7,94,30.27,10.0,Calm,Calm,-,N/A,,Clear,0,2012-10-14 11:55:00
8:15 AM,63.0,60.1,90,30.27,10.0,Calm,Calm,-,N/A,,Clear,0,2012-10-14 12:15:00
8:35 AM,64.2,59.2,84,30.27,10.0,Calm,Calm,-,N/A,,Clear,0,2012-10-14 12:35:00
8:55 AM,66.9,57.9,73,30.28,10.0,Calm,Calm,-,N/A,,Clear,0,2012-10-14 12:55:00
9:15 AM,69.1,57.4,66,30.28,10.0,Calm,Calm,-,N/A,,Clear,0,2012-10-14 13:15:00
9:35 AM,70.9,56.1,59,30.28,10.0,Calm,Calm,-,N/A,,Clear,0,2012-10-14 13:35:00
9:55 AM,72.3,55.0,54,30.28,10.0,SSE,3.5,-,N/A,,Clear,150,2012-10-14 13:55:00
10:15 AM,73.0,54.0,51,30.28,10.0,Calm,Calm,-,N/A,,Clear,0,2012-10-14 14:15:00
10:35 AM,73.4,53.2,49,30.27,10.0,SSW,3.5,-,N/A,,Clear,210,2012-10-14 14:35:00
10:55 AM,74.5,54.1,49,30.27,10.0,Calm,Calm,-,N/A,,Clear,0,2012-10-14 14:55:00
11:15 AM,75.2,54.1,48,30.27,10.0,SSE,4.6,-,N/A,,Clear,150,2012-10-14 15:15:00
11:35 AM,75.4,54.5,48,30.26,10.0,ESE,5.8,-,N/A,,Clear,120,2012-10-14 15:35:00
11:55 AM,74.8,54.5,49,30.26,10.0,ESE,4.6,-,N/A,,Clear,120,2012-10-14 15:55:00
12:15 PM,74.8,55.2,50,30.25,10.0,East,6.9,-,N/A,,Clear,100,2012-10-14 16:15:00
12:35 PM,75.0,56.5,52,30.24,10.0,ESE,8.1,-,N/A,,Clear,110,2012-10-14 16:35:00
12:55 PM,75.0,56.3,52,30.23,10.0,ESE,6.9,-,N/A,,Clear,120,2012-10-14 16:55:00
1:15 PM,75.4,56.5,52,30.21,10.0,ESE,5.8,-,N/A,,Clear,120,2012-10-14 17:15:00
1:35 PM,75.6,56.1,51,30.20,10.0,SE,8.1,-,N/A,,Clear,130,2012-10-14 17:35:00
1:55 PM,75.6,56.1,51,30.18,10.0,ESE,8.1,-,N/A,,Clear,120,2012-10-14 17:55:00
2:15 PM,75.6,56.7,52,30.17,10.0,SE,9.2,-,N/A,,Clear,140,2012-10-14 18:15:00
2:35 PM,75.4,57.6,54,30.17,10.0,ESE,5.8,-,N/A,,Clear,110,2012-10-14 18:35:00
2:55 PM,75.4,57.2,53,30.16,10.0,SE,8.1,-,N/A,,Clear,130,2012-10-14 18:55:00
3:15 PM,75.4,56.7,52,30.15,10.0,ESE,8.1,-,N/A,,Clear,120,2012-10-14 19:15:00
3:35 PM,75.2,56.7,52,30.15,10.0,SE,6.9,-,N/A,,Clear,130,2012-10-14 19:35:00
4:15 PM,74.8,57.9,55,30.13,10.0,ESE,6.9,-,N/A,,Clear,120,2012-10-14 20:15:00
4:35 PM,73.8,57.9,58,30.13,10.0,SE,8.1,-,N/A,,Clear,130,2012-10-14 20:35:00
4:55 PM,73.6,57.9,58,30.13,10.0,SE,5.8,-,N/A,,Clear,140,2012-10-14 20:55:00
5:15 PM,72.9,58.1,60,30.12,10.0,SE,6.9,-,N/A,,Clear,130,2012-10-14 21:15:00
5:35 PM,71.8,58.5,63,30.13,10.0,SE,5.8,-,N/A,,Clear,130,2012-10-14 21:35:00
5:55 PM,70.9,58.5,65,30.12,10.0,SE,3.5,-,N/A,,Clear,130,2012-10-14 21:55:00
6:15 PM,69.6,58.3,67,30.12,10.0,Calm,Calm,-,N/A,,Clear,0,2012-10-14 22:15:00
6:35 PM,68.4,58.3,70,30.13,10.0,SSE,4.6,-,N/A,,Clear,150,2012-10-14 22:35:00
6:55 PM,67.3,58.8,74,30.12,10.0,SE,3.5,-,N/A,,Clear,140,2012-10-14 22:55:00
7:15 PM,66.4,58.6,76,30.12,10.0,SSE,3.5,-,N/A,,Clear,150,2012-10-14 23:15:00
7:35 PM,65.7,58.6,78,30.12,10.0,Calm,Calm,-,N/A,,Clear,0,2012-10-14 23:35:00
7:55 PM,65.3,58.1,77,30.12,10.0,Calm,Calm,-,N/A,,Clear,0,2012-10-14 23:55:00
8:15 PM,65.3,57.7,76,30.11,10.0,SSE,3.5,-,N/A,,Clear,160,2012-10-15 00:15:00
8:35 PM,65.8,58.1,76,30.11,10.0,SSE,3.5,-,N/A,,Clear,150,2012-10-15 00:35:00
8:55 PM,66.2,58.3,76,30.11,10.0,Calm,Calm,-,N/A,,Clear,0,2012-10-15 00:55:00
9:15 PM,66.6,58.6,76,30.11,10.0,SSE,3.5,-,N/A,,Clear,160,2012-10-15 01:15:00
9:35 PM,66.9,58.8,75,30.10,10.0,SSE,3.5,-,N/A,,Clear,160,2012-10-15 01:35:00
9:55 PM,66.9,59.0,76,30.10,10.0,Calm,Calm,-,N/A,,Clear,0,2012-10-15 01:55:00
10:15 PM,67.1,59.0,75,30.09,10.0,South,3.5,-,N/A,,Clear,180,2012-10-15 02:15:00
10:35 PM,67.1,59.2,76,30.09,10.0,Calm,Calm,-,N/A,,Clear,0,2012-10-15 02:35:00
10:55 PM,66.6,59.0,77,30.09,10.0,Calm,Calm,-,N/A,,Clear,0,2012-10-15 02:55:00
11:15 PM,66.2,59.0,78,30.08,10.0,South,3.5,-,N/A,,Clear,170,2012-10-15 03:15:00
11:35 PM,66.2,59.2,78,30.07,10.0,Calm,Calm,-,N/A,,Clear,0,2012-10-15 03:35:00
11:55 PM,66.2,59.5,79,30.07,10.0,Calm,Calm,-,N/A,,Clear,0,2012-10-15 03:55:00